Location: G�nzburg
(48.4565°N, 10.3217°E)
Time: 12:27:40
(UTC+01:00)

ISS - Visible Passes

Search period start: 24 November 2017 00:00
Search period end: 04 December 2017 00:00
Orbit: 402 x 407 km, 51.6° (Epoch: 24 November)

Date Brightness Start Highest point End Pass type
(mag) Time Alt. Az. Time Alt. Az. Time Alt. Az.
27 Nov -1.0 19:07:20 10° SSW 19:07:51 13° SSW 19:07:51 13° SSW visible
28 Nov -2.1 18:15:34 10° SSW 18:17:50 21° SSE 18:17:50 21° SSE visible
29 Nov -1.5 17:24:23 10° SSE 17:26:01 13° SE 17:27:38 10° ESE visible
29 Nov -1.9 18:58:43 10° SW 19:00:25 28° SW 19:00:25 28° SW visible
30 Nov -3.2 18:06:33 10° SW 18:09:39 41° SSE 18:10:15 36° ESE visible
30 Nov -0.2 19:42:51 10° W 19:42:54 10° W 19:42:54 10° W visible
01 Dec -2.3 17:14:38 10° SSW 17:17:24 25° SE 17:20:01 11° E visible
01 Dec -2.6 18:50:22 10° WSW 18:52:40 42° W 18:52:40 42° W visible
02 Dec -3.9 17:57:58 10° WSW 18:01:14 76° SSE 18:02:23 37° ENE visible
02 Dec -0.4 19:34:39 10° W 19:35:02 13° W 19:35:02 13° W visible
03 Dec -3.2 17:05:41 10° SW 17:08:52 48° SSE 17:12:03 10° ENE visible
03 Dec -2.9 18:42:07 10° W 18:44:42 44° NW 18:44:42 44° NW visible
